Location: Calamocha
(40.9193°N, 1.2975°W)
Time: 17:09:31
(UTC+00:00)

Daily predictions for brighter satellites

Satellite Brightness Start Highest point End
(mag) Time Altitude Azimuth Time Altitude Azimuth Time Altitude Azimuth
CZ-4C R/B 3.1 17:37:35 10° NNW 17:44:51 66° NE 17:53:04 10° SE
Unknown 4.3 17:45:08 10° WSW 17:49:11 54° NNW 17:53:15 10° NE
Cosmos 1354 Rocket 4.4 17:45:30 10° N 17:50:27 41° ENE 17:55:23 10° SE
Cosmos 1726 Rocket 4.1 17:46:47 10° SSE 17:50:50 37° E 17:54:52 10° NNE
Unknown 4.4 17:48:27 10° WSW 17:52:30 51° NNW 17:56:33 10° NE
Unknown 4.3 17:49:00 10° WSW 17:53:03 52° NNW 17:57:07 10° NE
Unknown 4.3 17:50:03 10° WSW 17:54:05 51° NNW 17:58:09 10° NE
ASTEX 1 3.8 17:49:59 10° NNE 17:54:39 40° E 17:59:17 10° SSE
Okean-O 2.7 17:50:51 10° SSE 17:55:17 87° WSW 17:59:45 10° NNW
Unknown 4.4 17:53:16 10° WSW 17:57:18 50° NNW 18:01:21 10° NE
Shenzhou-11 Module 1.7 17:55:29 10° WSW 17:58:14 78° SSE 18:00:58 10° ENE
Cosmos 1242 Rocket 3.9 17:56:21 10° NNE 17:59:08 20° ENE 18:01:54 10° ESE
OAO 2 Rocket 4.2 17:54:30 10° WSW 17:59:28 42° S 18:04:28 10° ESE
Cosmos 2058 Rocket 3.8 17:56:58 10° SSE 18:00:47 30° E 18:04:36 10° NNE
Cosmos 968 Rocket 3.6 17:55:45 10° NNW 18:00:57 58° ENE 18:06:07 10° SSE
Abrixas rocket 4.3 18:00:31 10° SSE 18:01:30 11° SE 18:02:31 10° ESE
Cosmos 1939 Rocket 4.4 18:00:06 10° ESE 18:02:43 17° ENE 18:05:21 10° NNE
OAO 3 Rocket 4.4 17:58:36 10° SW 18:02:59 32° SSE 18:07:23 10° ESE
Cosmos 2228 3.1 17:59:46 10° S 18:04:03 56° E 18:08:20 10° NNE
Ariane Rocket 4.2 18:00:28 10° ESE 18:04:14 21° ENE 18:08:01 10° NNE
Lacrosse 5 rocket 1.8 18:06:03 10° NNW 18:09:36 38° NE 18:13:02 12° ESE
Cosmos 1821 Rocket 3.9 18:03:47 10° N 18:09:54 72° E 18:16:02 10° SSE
Cosmos 1844 Rocket 2.8 18:05:18 10° SSW 18:10:58 88° WNW 18:16:40 10° NNE
Meteor 1-16 Rocket 4.3 18:06:56 10° S 18:12:23 53° E 18:17:41 10° NNE
Cosmos 1992 Rocket 4.0 18:07:35 10° SSW 18:12:48 89° WNW 18:18:04 10° NNE
Meteor 2-10 4.4 18:08:40 10° SSE 18:13:24 39° E 18:18:04 10° NNE
Nadezhda 3 Rocket 4.1 18:08:13 10° S 18:14:28 87° W 18:20:50 10° N
Cosmos 921 Rocket 3.2 18:11:08 10° S 18:15:32 56° ESE 18:19:57 10° NNE
Cosmos 1503 Rocket 3.9 18:10:46 10° NNW 18:15:57 76° ENE 18:21:07 10° SSE
CZ-4 R/B 4.3 18:13:37 10° SSE 18:17:43 73° ENE 18:21:50 10° N
Cosmos 1908 4.2 18:15:17 10° SSE 18:18:35 27° E 18:21:54 10° NNE
YAOGAN 6 2.5 18:16:49 10° SSE 18:20:28 69° ENE 18:24:06 10° N
CZ-4 R/B 1.4 18:17:16 10° SSE 18:21:23 76° ENE 18:25:35 10° N
COSMO-SKYMED 1 2.7 18:17:55 10° N 18:22:17 82° WNW 18:26:37 10° SSW
Meteor 1-21 Rocket 4.4 18:17:01 10° NNW 18:22:55 82° W 18:28:42 10° S
Cosmos 1328 4.2 18:20:33 10° N 18:24:17 38° ENE 18:27:59 10° SSE
Cosmos 1934 Rocket 4.1 18:18:26 10° N 18:24:42 60° E 18:30:58 10° SSE
Cosmos 1535 Rocket 4.5 18:18:41 10° N 18:24:51 61° E 18:30:53 10° SSE
Cosmos 2084 4.1 18:22:10 10° SW 18:26:40 62° NW 18:31:07 10° NNE
Cosmos 2278 Rocket 2.9 18:22:24 10° SSE 18:27:13 30° ESE 18:32:05 10° NE
H-2A R/B 3.9 18:28:31 12° ENE 18:28:31 12° ENE 18:30:35 10° NE
Cosmos 839 Rocket 4.4 18:24:08 10° NNW 18:30:06 46° NE 18:36:19 12° SE
Cosmos 1844 3.9 18:24:52 10° SSW 18:30:33 78° WNW 18:36:21 10° NNE
USA 116 3.1 18:29:34 10° NNE 18:32:42 82° ESE 18:36:00 10° S
Lacrosse 5 3.8 18:30:24 10° NNW 18:33:31 16° NNE 18:35:56 12° NE
Cosmos 1825 Rocket 4.4 18:29:39 10° NNW 18:33:55 54° W 18:38:12 10° S
Cosmos 1953 Rocket 3.6 18:30:48 10° N 18:35:12 80° W 18:39:32 10° S
ATLAS 5 CENTAUR R/B 3.5 18:38:12 10° WSW 18:41:52 27° NW 18:45:56 10° NNE
Cosmos 292 Rocket 3.6 18:37:13 10° S 18:41:54 67° ESE 18:46:38 10° NNE
Unknown 4.4 18:45:24 10° NNW 18:47:05 20° NNE 18:47:05 20° NNE
CSL-04 Rocket 4.1 18:49:59 10° S 18:55:30 67° WSW 19:01:01 10° NNW
CZ-2D R/B 3.1 18:54:01 10° SSE 18:57:50 84° E 19:01:43 10° N
NOAA 11 4.1 18:53:06 10° SSE 18:58:33 77° ENE 19:04:00 10° N
SL-4 R/B 1.9 18:57:00 10° WNW 19:00:45 67° SW 19:01:45 43° SSE
YAOGAN 1 4.1 19:09:12 10° SSW 19:13:11 37° W 19:17:13 10° NNW
Cosmos 1726 3.7 19:10:38 10° SW 19:14:00 35° WNW 19:17:24 10° N
ARGOS 4.3 19:15:47 26° NE 19:15:47 26° NE 19:19:05 10° N
Cosmos 1833 Rocket 3.0 19:09:48 10° NNW 19:15:10 44° ENE 19:15:37 43° ENE
Cosmos 1703 4.1 19:13:57 10° NNW 19:17:47 51° W 19:21:35 10° S
ADEOS Rocket 3.5 19:22:56 10° NNE 19:30:27 52° E 19:37:26 10° S
COSMOS 2406 3.5 19:25:38 10° NNW 19:31:21 66° WSW 19:34:55 23° S
IRS-1A Rocket 4.3 19:26:40 11° S 19:31:57 74° WSW 19:37:29 10° NNW
Cosmos 2082 Rocket 2.8 19:27:28 10° N 19:32:05 40° NE 19:32:05 40° NE
MOS 1 4.1 19:30:30 35° SSE 19:33:02 86° ENE 19:38:43 10° NNW
Cosmos 1939 Rocket 4.3 19:33:43 10° SSW 19:37:20 35° W 19:41:03 10° NNW
SJ-11-01 4.4 19:40:18 67° N 19:40:18 67° N 19:44:23 10° NNW
Ariane Rocket 3.9 19:37:56 10° S 19:42:50 48° W 19:47:46 10° NNW
OAO 2 Rocket 4.2 19:38:56 10° WSW 19:43:41 40° SSW 19:43:41 40° SSW
OAO 3 Rocket 4.2 19:41:23 10° WSW 19:45:14 39° SSW 19:45:14 39° SSW
SPOT 3 Rocket 4.1 19:49:52 47° N 19:49:52 47° N 19:53:37 10° N
Lacrosse 5 rocket 3.2 19:45:25 10° WNW 19:48:36 24° SW 19:48:43 24° SW
USA 238 DEB 3.5 19:45:01 10° SSW 19:51:41 84° ESE 19:53:10 58° NE
USA 238 3.5 19:45:07 10° SSW 19:51:47 84° ESE 19:53:11 60° NE
Cosmos 1459 Rocket 4.0 19:50:25 10° N 19:55:52 67° NNE 19:55:52 67° NNE
USA 234 3.3 20:01:11 61° S 20:01:11 61° S 20:06:47 10° SW
H-2A R/B 3.2 20:09:09 38° NNW 20:09:09 38° NNW 20:12:23 10° NNW
Cosmos 1802 Rocket 4.4 20:01:51 10° N 20:06:46 54° N 20:06:46 54° N
Cosmos 2278 Rocket 3.4 20:05:51 10° SW 20:11:07 39° WNW 20:16:27 10° N
Cosmos 2173 Rocket 4.2 20:11:10 10° N 20:16:35 64° NW 20:16:35 64° NW
Lacrosse 5 3.6 20:12:46 10° NW 20:15:08 26° NNW 20:15:08 26° NNW
NOSS 3-2 (A) 4.3 20:13:04 10° SW 20:16:21 37° SW 20:16:21 37° SW
